Date,TemperatureHighF,TemperatureAvgF,TemperatureLowF,DewpointHighF,DewpointAvgF,DewpointLowF,HumidityHigh,HumidityAvg,HumidityLow,PressureMaxIn,PressureMinIn,WindSpeedMaxMPH,WindSpeedAvgMPH,GustSpeedMaxMPH,PrecipitationSumIn
2014-1-21,68,48,34,36,32,29,87,60,26,30.27,30.14,3,0,9,0.00
2014-1-22,67,46,34,35,31,27,81,59,27,30.16,29.91,1,0,4,0.00
2014-1-23,69,50,37,35,32,30,83,55,24,30.02,29.87,2,0,7,0.00
2014-1-24,78,56,43,38,34,27,75,49,15,30.23,30.02,5,0,13,0.00
2014-1-25,74,53,41,36,30,-100,76,48,20,30.24,30.09,2,0,5,0.00
2014-1-26,64,49,40,37,34,30,73,58,34,30.16,30.01,1,0,3,0.00
2014-1-27,64,50,38,46,36,31,81,60,35,30.16,30.05,1,0,3,0.00
2014-1-28,69,59,50,47,43,40,77,58,35,30.20,30.14,1,0,4,0.00
2014-1-29,64,59,55,58,56,53,93,88,80,30.14,29.95,4,2,10,0.07
2014-1-30,64,55,49,52,49,44,96,80,55,29.95,29.80,4,1,9,0.16
2014-1-31,49,44,41,45,42,39,96,92,82,29.97,29.89,1,0,4,0.05
2014-4-5,71,56,43,53,43,-100,96,72,37,30.13,30.02,4,1,10,0.01
2014-4-6,81,63,46,53,49,44,95,64,32,30.21,30.05,5,1,13,0.01
2014-4-7,85,68,50,57,53,47,90,62,32,30.15,30.03,3,1,6,0.00
2014-4-8,86,71,55,58,55,52,92,63,36,30.10,29.96,2,0,6,0.00
2014-4-9,84,70,56,58,53,41,85,59,27,30.02,29.92,4,1,8,0.00
2014-4-10,86,68,51,55,50,46,86,57,28,29.98,29.83,2,0,7,0.00
2014-4-11,84,66,53,56,52,49,87,66,35,29.89,29.81,3,0,6,0.00
2014-4-12,74,61,50,56,48,-100,91,69,52,29.88,29.78,6,3,15,0.00
2014-4-13,72,58,52,50,48,41,86,72,33,29.94,29.88,5,2,12,0.00
2014-4-14,58,57,57,50,50,50,77,76,74,29.95,29.94,0,0,2,0.00
2014-4-15,67,61,53,54,52,48,83,71,62,29.98,29.96,3,2,7,0.00
2014-4-16,83,66,53,55,51,44,89,62,26,29.85,29.75,1,1,6,0.00
2014-4-25,58,54,49,54,50,47,95,87,79,29.93,29.75,5,2,14,1.17
2014-4-26,65,53,44,51,42,-100,97,73,45,30.04,29.80,7,2,15,0.02
2014-4-27,68,56,47,51,47,43,93,73,45,30.08,30.00,6,2,13,0.00
2014-4-28,77,62,46,52,44,34,92,57,22,30.19,30.08,6,1,15,0.00
2014-4-29,87,70,53,55,47,40,71,46,23,30.17,30.00,5,2,11,0.00
2014-4-30,94,75,55,55,48,42,86,45,18,30.08,29.96,3,0,6,0.00
2014-5-1,95,76,58,56,51,40,83,48,17,30.06,29.99,4,1,9,0.00
2014-5-2,86,71,58,51,48,45,70,48,25,30.03,30.01,1,0,4,0.00
2014-5-13,94,83,70,49,42,37,47,27,14,30.07,30.02,3,0,7,0.00
2014-5-14,98,79,59,52,48,37,69,39,12,30.10,29.97,3,1,7,0.00
2014-5-15,98,81,61,52,44,31,67,33,10,30.06,29.95,4,1,9,0.00
2014-5-16,91,75,59,52,45,39,53,37,18,30.01,29.88,5,2,13,0.00
2014-5-17,82,68,59,54,48,-100,72,54,36,29.92,29.83,6,3,13,0.00
2014-5-18,80,67,55,53,49,46,72,55,34,29.92,29.83,7,2,15,0.00
2014-5-23,91,73,55,60,56,50,84,57,34,29.97,29.81,5,2,9,0.00
2014-5-24,94,76,60,60,54,-100,77,50,26,29.92,29.80,6,2,12,0.00
2014-5-25,98,78,60,58,54,51,74,47,22,29.91,29.80,5,2,11,0.00
2014-5-26,95,77,59,57,51,48,67,43,20,29.95,29.85,9,2,17,0.00
2014-5-27,91,72,60,52,48,45,61,45,21,29.98,29.88,5,2,10,0.00
2014-5-28,82,71,57,49,34,24,66,30,12,30.02,29.89,6,2,14,0.00
2014-5-29,89,73,55,43,39,30,58,32,13,29.91,29.80,5,1,11,0.00
2014-5-30,84,69,57,51,44,33,78,44,17,29.89,29.83,8,3,13,0.00
2014-5-31,88,68,52,53,45,-100,89,53,16,29.93,29.82,4,1,9,0.00
2014-6-1,93,74,55,54,48,37,77,45,15,29.86,29.71,5,1,11,0.00
2014-6-2,80,68,56,52,49,46,81,54,30,29.84,29.74,8,4,18,0.00
2014-6-3,87,68,52,54,50,43,89,59,23,29.91,29.78,4,2,9,0.00
2014-6-4,97,76,56,56,53,46,84,49,18,29.84,29.71,5,1,11,0.00
2014-6-5,95,78,61,59,53,49,66,44,28,29.79,29.67,6,2,12,0.00
2014-6-6,94,73,58,59,54,49,77,53,28,29.79,29.67,6,2,15,0.00
2014-6-7,98,75,57,61,53,-100,82,53,22,29.78,29.66,5,2,10,0.00
2014-6-8,104,85,64,61,53,45,73,40,15,29.76,29.63,5,1,11,0.00
2014-6-9,107,87,68,60,53,32,63,37,8,29.70,29.57,4,1,10,0.00
2014-6-10,103,80,62,62,56,50,77,47,17,29.70,29.58,9,2,15,0.00
2014-6-11,84,68,59,58,55,52,84,65,39,29.82,29.70,7,4,18,0.00
2014-6-12,83,66,54,54,52,49,86,63,31,29.90,29.81,8,4,16,0.00
2014-6-13,88,70,56,52,48,35,78,50,17,29.93,29.85,3,1,9,0.00
2014-6-14,88,73,60,53,46,-100,77,43,19,29.87,29.75,5,1,10,0.00
2014-6-15,84,70,59,54,50,45,66,50,31,29.76,29.68,9,3,16,0.00
2014-6-16,79,66,57,51,49,46,74,56,36,29.83,29.72,8,4,13,0.00
2014-6-17,84,69,54,49,43,30,77,44,16,29.91,29.81,5,2,12,0.00
2014-6-18,93,75,59,48,43,34,63,35,14,29.90,29.83,7,2,13,0.00
2014-6-19,94,75,58,53,43,28,54,35,10,29.95,29.87,5,1,10,0.00
2014-6-20,96,78,60,56,49,32,72,41,19,29.93,29.81,6,2,16,0.00
2014-6-21,91,73,62,56,46,-100,63,41,22,29.84,29.77,6,2,12,0.00
2014-6-22,92,71,57,57,51,44,76,53,19,29.88,29.78,7,2,14,0.00
2014-6-23,95,70,57,56,53,48,83,60,21,29.89,29.80,4,2,11,0.00
2014-6-24,94,75,63,57,52,49,61,48,25,29.91,29.83,7,2,14,0.00
2014-6-25,82,72,62,60,57,54,76,61,46,29.89,29.85,11,4,20,0.00
2014-6-26,83,70,61,59,55,52,82,64,35,29.93,29.87,7,3,13,0.00
2014-6-27,90,72,58,62,57,52,87,63,29,29.92,29.82,7,3,12,0.00
2014-6-28,94,74,59,59,53,-100,86,53,23,29.90,29.80,5,2,13,0.00
2014-6-29,99,82,63,59,54,45,70,42,16,29.89,29.74,3,1,10,0.00
2014-6-30,106,85,67,59,54,46,64,39,14,29.78,29.65,6,1,13,0.00
2014-7-1,94,78,64,57,53,46,70,45,21,29.76,29.69,9,4,15,0.00
2014-7-2,93,73,58,61,56,52,84,59,31,29.81,29.73,5,3,12,0.00
2014-7-3,94,75,61,62,57,53,78,56,32,29.86,29.77,6,2,12,0.00
2014-7-4,97,78,63,60,52,39,71,46,14,29.91,29.82,7,2,14,0.00
2014-7-5,99,79,59,57,49,35,71,41,11,30.01,29.90,5,2,10,0.00
2014-7-6,101,80,59,52,48,44,66,38,15,29.99,29.83,4,1,9,0.00
2014-7-7,95,78,65,59,53,46,61,43,26,29.85,29.74,4,1,8,0.00
2014-7-8,99,80,68,62,55,48,63,45,18,29.85,29.76,6,2,13,0.00
2014-7-9,92,75,61,62,58,55,81,58,32,29.88,29.76,6,3,15,0.00
2014-7-10,87,72,60,60,57,53,84,63,34,29.87,29.78,6,4,16,0.00
2014-7-11,87,72,61,58,56,54,80,59,35,29.99,29.87,8,3,16,0.00
2014-7-12,92,70,59,61,55,54,85,62,31,30.02,29.90,8,2,13,0.00
2014-7-13,100,78,60,63,58,55,84,56,27,29.96,29.78,3,1,9,0.00
2014-7-14,106,86,69,62,57,51,64,41,19,29.83,29.76,8,2,19,0.00
2014-7-15,94,79,71,64,58,55,61,50,34,29.92,29.83,6,3,14,0.00
2014-7-16,87,73,65,62,59,57,76,62,43,29.95,29.85,8,3,14,0.00
2014-7-17,86,72,62,63,59,56,85,65,45,29.96,29.85,6,4,14,0.00
2014-7-18,88,71,60,62,58,55,85,66,40,29.96,29.83,7,3,15,0.00
2014-7-19,94,74,60,62,58,55,85,61,31,29.90,29.80,8,2,15,0.00
2014-7-20,81,70,64,60,58,54,78,66,41,29.92,29.84,6,3,14,0.01
2014-7-21,85,73,64,63,60,57,81,65,38,29.99,29.91,8,3,15,0.01
2014-7-22,88,71,62,62,58,57,83,66,39,30.04,29.96,8,3,21,0.00
2014-7-23,89,73,59,61,58,55,89,63,34,30.10,29.95,4,2,10,0.00
2014-7-24,95,78,64,61,57,43,80,54,22,29.97,29.76,5,1,11,0.00
2014-7-25,102,84,64,57,50,27,72,37,8,29.84,29.73,1,0,9,0.00
2014-7-26,104,87,66,60,49,33,60,32,9,29.88,29.79,6,2,10,0.00
2014-7-27,101,84,73,58,52,43,52,37,15,29.92,29.82,5,1,11,0.00
2014-7-28,97,81,66,59,52,44,66,41,17,29.97,29.88,8,3,16,0.00
2014-7-29,101,84,66,58,53,47,64,38,18,29.99,29.87,5,2,12,0.00
2014-7-30,100,82,68,63,57,49,68,46,18,29.94,29.83,4,2,10,0.00
2014-7-31,102,81,67,63,56,54,68,46,22,29.90,29.76,4,2,8,0.00
2014-8-1,106,85,66,59,56,45,69,42,16,29.83,29.73,3,1,9,0.00
2014-8-2,97,79,65,61,57,54,71,50,30,29.86,29.76,6,2,12,0.00
2014-8-3,85,71,59,62,58,55,88,65,43,29.91,29.82,6,3,11,0.00
2014-8-4,80,69,60,62,58,54,83,68,51,29.93,29.86,4,1,10,0.00
2014-8-5,76,72,67,67,63,58,80,75,68,30.03,29.91,4,1,7,0.00
2014-8-6,94,80,70,68,64,58,88,61,36,29.98,29.85,4,1,12,0.00
2014-8-7,96,81,65,66,61,57,77,52,35,29.90,29.74,6,2,11,0.00
2014-8-8,94,77,62,62,58,53,78,54,30,29.85,29.72,5,2,10,0.00
2014-8-11,98,76,60,59,55,49,83,54,24,29.90,29.78,6,2,11,0.00
2014-8-12,85,71,61,58,56,53,80,60,37,29.93,29.82,7,3,14,0.00
2014-8-13,89,74,58,62,58,54,87,60,37,29.93,29.84,6,3,14,0.00
2014-8-14,92,76,63,61,56,47,79,54,24,29.90,29.81,7,2,11,0.00
2014-8-15,96,78,63,60,55,46,75,50,23,29.95,29.85,4,2,8,0.00
2014-8-16,97,79,62,59,54,46,72,47,21,29.98,29.87,4,2,9,0.00
2014-8-17,95,75,60,57,53,43,79,52,18,29.97,29.80,4,2,8,0.00
2014-8-18,91,71,59,60,57,54,88,65,34,29.83,29.69,5,2,12,0.00